{"data":{"norad_id":67023,"epoch":"2026-09-20T21:25:49.477728Z","epoch_age_seconds":47347,"freshness":"FRESH","line1":"1 67023U 25293W   26263.89293377  .00000174  00000+0  22372-4 0  9997","line2":"2 67023  70.0018 322.4297 0003619 270.3643  89.7101 14.98348816 44128","mean_motion":14.98348816,"eccentricity":0.0003619,"inclination_deg":70.0018,"raan_deg":322.4297,"arg_perigee_deg":270.3643,"mean_anomaly_deg":89.7101,"bstar":2.2372e-5,"rev_number":4412,"period_min":96.105792230959,"perigee_km":569.48245087587,"apogee_km":574.51295837508,"semimajor_km":6950.1347046255,"source":"CELESTRAK","updated_at":"2026-09-21T09:00:36.072455Z"}}